"Pseudo-MPEC" for P10Yc9H

Created 2020 Mar 30 5:07:11 UT using Find_Orb

Click here for an explanation of pseudo-MPECs

 
 Astrometry: 
     P10Yc9H  C2020 03 24TX\:oarU\S_BE7DWv^0#q(`f=2rd-oreQ24l_jO8)q]@o;p.%t%-F51
     P10Yc9H  C2020 03 244F%Fr%d%t6D%IYr.I!RL7MA,wO1q/s_Ux_'Astrometry##`R:*WF51
     P10Yc9H  C2020 03 24==O%fP%spx#wMhI\a.k_Hr=KXo?=L\ZV;!`@tckt;nKh6t%x]p7+F51
     P10Yc9H  C2020 03 28CT0!IPrPfS,(Tl(/mVJ;'mRVrP9BAxev.gy89O%l5-\/(EW8Jrt=J04
     P10Yc9H  C2020 03 28JPiTC1PAwL)%BW/!$x.$ZqaZNy*GM!K#jZF!0AR6KpoG($H,#0d7J04
     P10Yc9H  C2020 03 28'Kq0%!1R\0Fp0HZRTJW%@$-xmU6Wmq]'@8HvO2CyCEZuS^,X$0eWJ04
     P10Yc9H  C2020 03 28j22ZD%Q[D3wKynT2kTU6h*jL6+hbjTtJxUYxh0pn0dHvVV+FD5jKJ04
     P10Yc9H  C2020 03 28%mVY5#ilMhF\!DK2:svYAL5RW[PF!%sW^.OaQBhsBJugOa[H7:DcJ04
     P10Yc9H  C2020 03 28)Pt?@E(Er9)ZCD1e2+a6ZNfAdh2Xfubo[CiZK4Rq2a;C'(h=bp)]J04
     P10Yc9H KC2020 03 29ZLo98Dredacted;UUmjx\J#pVAAB)\?clickc=HQ[dHdH\jqO)*^X31
     P10Yc9H KC2020 03 29/N\FR9p.Z8*=NJ'lrXM6Zk^=\0leQ#i%_52x,t2D%PLOWGiE]JkvX31
     P10Yc9H KC2020 03 29AM`3lfdoUD.EV`QPrOUU^3t+WsC'dsk357yT`.xHS..^8[3n7iRKX31
     P10Yc9H KC2020 03 30=8(j5cUbeuTlN.R\`!6nct-xbU6+a;HSw8B`G^%33naBD\!4Q?b8X31
     P10Yc9H KC2020 03 30=JG-/.HWEJ8_KwM0RuLNvJ0Q^apSh%u4cDl%ip=)AnGIYyD+M@U8X31
     P10Yc9H KC2020 03 30r9yBm-0r-,-p*SOsIGhereVD;$mtW8%_2Zw^MP'forA]k9kQ;[SkX31
     P10Yc9H KC2020 03 30/8e!-in(!`a`sv7WIg8DK*8p[81=FHnkI5r^6XEP+AgcE.UCY9[)734
     P10Yc9H KC2020 03 30ON;FtqLvf=B,LB*KL6GmSl.i5%?QSZw'+IWK@1mM]MoBSv2ieFEM734
     P10Yc9H KC2020 03 305[OnTZ!4W(s:EGKltc@C+MsqM=\Mbcwm1QM2?+o9e/824*`Q$^6Q734
     P10Yc9H KC2020 03 301-XNC_7-4g@My_2nxxWjdFO%QSch_tuq#?W:3(H-yb@H:Y+\YZa1H21
     P10Yc9H KC2020 03 30g$ySNxVG/JMB,SB/;uq[w1S1ijPQ!/TDb)vP+B$'O1#^yU;P@na7734
     P10Yc9H KC2020 03 308Rgi-_xb*;kZYufSm+eKik$x-TUp/Gwexplanation6/6iK@^pU=H21
     P10Yc9H KC2020 03 30lAsEhXd9G0=yqLB'ND$-;aY5EOj=uejA.I_GJo?J@EBGgIOeNmLCH21

Station data:
(734) Farpoint Observatory, Eskridge  (N38.890107 W96.001400)  US/Kansas.
   Observer G. Hug. 0.69-m reflector + CCD.
(F51) Pan-STARRS 1, Haleakala  (N20.707235 W156.255910)  US/Hawaii.
   Observers N. Primak, A. Schultz, S. Watters, J. Thiel, T. Goggia. Measurer
   PS1 Science Consortium. 1.8-m Ritchey-Chrétien + CCD.
(H21) Astronomical Research Observatory, Westfield  (N39.483057 W87.968270)
   US/Illinois. 0.76-m f/3.0 astrograph + CCD.
(J04) ESA Optical Ground Station, Tenerife  (N28.300924 W16.511830)  Canary
   Islands (Spain).  Observer D. Abreu. Measurers M. Micheli, D. Koschny, E.
   Schwab, M. Busch, A. Knöfel. 1.0-m f/4.4 reflector + CCD.
(X31) Galileo Galilei Observatory, Oro Verde  (S31.823022 W60.520660)
   Argentina.

Orbital elements:  P10Yc9H
   Perihelion 2020 Aug 5.329076 +/- 0.198 TT =  7:53:52 (JD 2459066.829076)
Epoch 2020 Mar 30.0 TT = JDT 2458938.5   Earth MOID: 0.1819   AutoNEOCP
M 279.38605194 +/- 0.6              (J2000 ecliptic)
n   0.62818147 +/- 0.00442          Peri.   98.07210 +/- 0.17
a   1.35024517 +/- 0.00634          Node   199.22169 +/- 0.06
e   0.2485739 +/- 0.00367           Incl.   20.94767 +/- 0.27
P   1.57/573.07d           H 21.3   G  0.15   U  9.1  
q 1.01460941 +/- 0.000353    Q 1.68588093 +/- 0.0128
From 22 observations 2020 Mar. 24-30; mean residual 0".48
Residuals in arcseconds: 
200324 F51  .13+  .37-    200328 J04  .17+  .05-    200330 734  .25-  .05-    
200324 F51  .15+  .62-    200329 X31  .34+  .20+    200330 734  .53+  .05+    
200324 F51  .53-  .90+    200329 X31  .49+  .20-    200330 H21  .18-  .00     
200328 J04  .05+  .14+    200329 X31  .23+  .13-    200330 734  .75-  1.1+    
200328 J04  .03+  .11-    200330 X31  .45+  1.2+    200330 H21  .01-  .11-    
200328 J04  .16+  .23+    200330 X31  .14-  .08-    200330 H21  .24+  .63-    
200328 J04  .04+  .43+    200330 X31  .19+  .11-    
200328 J04  .03-  .04-    200330 734  1.0-  1.5-    

Ephemerides (geocentric):
Date (UTC) HH   RA              Dec         delta   r     elong  mag " sig PA
---- -- -- --  -------------   -----------  ------ ------ -----  --- ---- ---
2020 03 30 05  12 05 24.875   -15 39 33.69  .38712 1.3776 166.0 20.6 .173 179
2020 03 30 06  12 05 21.718   -15 37 29.72  .38693 1.3775 166.1 20.6 .177   2
2020 03 30 07  12 05 18.561   -15 35 25.60  .38675 1.3773 166.1 20.6 .182   6
2020 03 30 08  12 05 15.404   -15 33 21.32  .38657 1.3772 166.1 20.6 .188   9
2020 03 30 09  12 05 12.247   -15 31 16.89  .38639 1.3770 166.1 20.6 .194  12
2020 03 30 10  12 05 09.089   -15 29 12.30  .38620 1.3769 166.1 20.6 .201  15
2020 03 30 11  12 05 05.931   -15 27 07.56  .38602 1.3767 166.1 20.6 .208  17
2020 03 30 12  12 05 02.773   -15 25 02.67  .38584 1.3766 166.1 20.6 .216  20
2020 03 30 13  12 04 59.615   -15 22 57.63  .38566 1.3764 166.2 20.6 .224  22
2020 03 30 14  12 04 56.457   -15 20 52.43  .38548 1.3763 166.2 20.6 .232  25
2020 03 30 15  12 04 53.298   -15 18 47.08  .38530 1.3761 166.2 20.6 .241  27
2020 03 30 16  12 04 50.139   -15 16 41.58  .38512 1.3760 166.2 20.6 .251  29
2020 03 30 17  12 04 46.981   -15 14 35.93  .38495 1.3758 166.2 20.6 .261  31
2020 03 30 18  12 04 43.822   -15 12 30.13  .38477 1.3757 166.2 20.6 .271  33
2020 03 30 19  12 04 40.663   -15 10 24.17  .38459 1.3755 166.2 20.6 .281  35
2020 03 30 20  12 04 37.503   -15 08 18.07  .38441 1.3754 166.2 20.6 .292  36
2020 03 30 21  12 04 34.344   -15 06 11.81  .38424 1.3752 166.3 20.6 .304  38
2020 03 30 22  12 04 31.185   -15 04 05.40  .38406 1.3751 166.3 20.6 .315  40
2020 03 30 23  12 04 28.025   -15 01 58.85  .38388 1.3749 166.3 20.6 .327  41
2020 03 31 00  12 04 24.866   -14 59 52.14  .38371 1.3748 166.3 20.6 .340  43
2020 03 31 01  12 04 21.707   -14 57 45.28  .38353 1.3746 166.3 20.6 .352  44
2020 03 31 02  12 04 18.547   -14 55 38.27  .38336 1.3745 166.3 20.6 .365  45
2020 03 31 03  12 04 15.388   -14 53 31.12  .38318 1.3743 166.3 20.6 .378  46
2020 03 31 04  12 04 12.228   -14 51 23.81  .38301 1.3742 166.3 20.6 .392  48
2020 03 31 05  12 04 09.069   -14 49 16.36  .38283 1.3740 166.3 20.6 .406  49
2020 03 31 06  12 04 05.910   -14 47 08.75  .38266 1.3739 166.3 20.6 .420  50
2020 03 31 07  12 04 02.750   -14 45 01.00  .38249 1.3737 166.3 20.6 .434  51
2020 03 31 08  12 03 59.591   -14 42 53.10  .38231 1.3736 166.4 20.6 .449  52
2020 03 31 09  12 03 56.432   -14 40 45.05  .38214 1.3734 166.4 20.6 .464  53
2020 03 31 10  12 03 53.273   -14 38 36.85  .38197 1.3733 166.4 20.6 .479  54
2020 03 31 11  12 03 50.114   -14 36 28.51  .38180 1.3731 166.4 20.6 .495  55
2020 03 31 12  12 03 46.956   -14 34 20.02  .38163 1.3730 166.4 20.6 .511  56
2020 03 31 13  12 03 43.797   -14 32 11.38  .38146 1.3728 166.4 20.6 .527  56
2020 03 31 14  12 03 40.639   -14 30 02.59  .38129 1.3727 166.4 20.6 .543  57
2020 03 31 15  12 03 37.481   -14 27 53.66  .38112 1.3725 166.4 20.6 .560  58
2020 03 31 16  12 03 34.323   -14 25 44.58  .38095 1.3724 166.4 20.6 .577  59
2020 03 31 17  12 03 31.165   -14 23 35.36  .38078 1.3722 166.4 20.6 .594  60
2020 03 31 18  12 03 28.007   -14 21 25.99  .38061 1.3721 166.4 20.6 .612  60
2020 03 31 19  12 03 24.850   -14 19 16.47  .38044 1.3719 166.4 20.6 .629  61
2020 03 31 20  12 03 21.693   -14 17 06.81  .38027 1.3718 166.4 20.6 .647  62
2020 03 31 21  12 03 18.536   -14 14 57.01  .38011 1.3716 166.4 20.6 .666  62
2020 03 31 22  12 03 15.380   -14 12 47.06  .37994 1.3715 166.4 20.5 .684  63
2020 03 31 23  12 03 12.223   -14 10 36.96  .37977 1.3713 166.4 20.5 .703  64
2020 04 01 00  12 03 09.068   -14 08 26.72  .37961 1.3712 166.4 20.5 .723  64
2020 04 01 01  12 03 05.912   -14 06 16.34  .37944 1.3710 166.4 20.5 .742  65
2020 04 01 02  12 03 02.757   -14 04 05.81  .37927 1.3709 166.4 20.5 .762  65
2020 04 01 03  12 02 59.602   -14 01 55.14  .37911 1.3707 166.4 20.5 .782  66
2020 04 01 04  12 02 56.447   -13 59 44.33  .37894 1.3706 166.4 20.5 .802  67